Regional Weather Roundup
Issued by NWS

Home | Current Version | Previous Version | Graphics & Text | Print | Product List | Glossary Off
Versions: 1 2 3 4 5 6 7 8 9 10 11 12 13 14 15 16 17 18 19 20 21 22 23 24 25 26 27 28 29 30 31 32 33 34 35 36 37 38 39 40 41 42 43 44 45 46 47 48 49 50

000
ASUS45 KSLC 271210
RWRUT

UTAH REGIONAL WEATHER ROUNDUP
NATIONAL WEATHER SERVICE SALT LAKE CITY UT
600 AM MDT MON APR 27 2015

UTZ001>011-023>025-271300-

NORTHERN UTAH

CITY           SKY/WX    TMP DP  RH WIND       PRES   REMARKS
BRIGHAM CITY   CLEAR     43  29  59 W5        30.21R
HILL AFB       CLEAR     40  32  73 E5        30.18R
LOGAN          PTCLDY    35  30  82 SE3       30.22R
OGDEN          CLEAR     39  32  76 SW3       30.18R
PROVO AIRPORT  CLEAR     39  32  75 SE5       30.16S
SALT LAKE CITY MOCLDY    40  34  79 N6        30.18R
VERNAL         CLOUDY    45  35  68 CALM      30.12R
WENDOVER       PTCLDY    45  14  29 NW7       30.21S
HEBER CITY     MOCLDY    41  32  70 NE5       30.16S
WEST JORDAN    CLOUDY    43  34  70 NW13      30.18R

$$

UTZ012>022-026-027-271300-

SOUTHERN/CENTRAL UTAH

CITY           SKY/WX    TMP DP  RH WIND       PRES   REMARKS
BLANDING       CLEAR     46  35  66 N14G20    30.06R
BRYCE CANYON   CLEAR     31  25  78 N13       30.13S WCI  21
CEDAR CITY     CLEAR     33  26  75 CALM      30.14R
DELTA          CLOUDY    40  31  70 NW9       30.18R WCI  34
HANKSVILLE     CLEAR     41  32  70 NW5       30.07R
MILFORD        MOCLDY    34  26  72 N13       30.16R WCI  25
MOAB/CYNLANDS  CLOUDY    48  38  68 NW6       30.01R
PRICE          NOT AVBL
ST GEORGE      SUNNY     50  27  40 W7        30.06R
KANAB          CLEAR     34  30  86 E7        30.10R WCI  28

$$

REGIONAL REPORTS     COLORADO/ARIZONA

CITY           SKY/WX    TMP DP  RH WIND       PRES   REMARKS
CRAIG, CO      CLOUDY    40  38  93 SW5       30.11R
GRAND JUNCTION PTCLDY    43  39  86 N6        30.04R
RIFLE          CLOUDY    41  38  89 E3        30.07R
MONTROSE       CLOUDY    43  39  86 VRB5      30.08R
CORTEZ         CLEAR     32  31  96 E3        30.00R
PAGE, AZ       CLEAR     49  28  44 W5        30.01R
GRAND CANYON   CLEAR     25  23  92 NE3       30.05S
KINGMAN        CLEAR     41  27  57 E9        30.01R
FLAGSTAFF      CLEAR     27  25  92 CALM      30.03R

$$

REGIONAL REPORTS    NEVADA/IDAHO/WYOMING

CITY           SKY/WX    TMP DP  RH WIND       PRES   REMARKS
LAS VEGAS, NV  CLEAR     60  17  18 NW12G18   30.01R
ELY            CLEAR     25  19  78 VRB3      30.24R
ELKO           CLEAR     27  22  81 CALM      30.26S
POCATELLO, ID  CLEAR     34  25  69 S7        30.26R WCI  28
BURLEY         CLEAR     30  21  69 S3        30.24R
EVANSTON, WY   CLOUDY    34  31  88 N8        30.19R WCI  27
ROCK SPRINGS   FLURRIES  34  32  92 NE12      30.18S WCI  25
KEMMERER       CLOUDY    34  32  93 SW7       30.20R WCI  28

$$



USA.gov is the U.S. government's official web portal to all federal, state and local government web resources and services.